| time (UTC) | temp C | wind direction | speed KPH | gust KPH | rain 1hr cm | rain 24hr cm | rain mn cm | humidity % | barometer mb |
| 20260503184053 | 16 | 329 | 20.9 | 27.4 | 0.00 | 0.00 | 0.00 | 69 | 1014.1 |
| 20260503183530 | 16 | 327 | 14.5 | 27.4 | 0.00 | 0.00 | 0.00 | 69 | 1014.0 |
| 20260503183035 | 16 | 338 | 17.7 | 27.4 | 0.00 | 0.00 | 0.00 | 69 | 1014.0 |
| 20260503182026 | 16 | 311 | 17.7 | 27.4 | 0.00 | 0.00 | 0.00 | 70 | 1013.9 |
| 20260503181529 | 17 | 303 | 16.1 | 25.7 | 0.00 | 0.00 | 0.00 | 70 | 1014.0 |
| 20260503181014 | 17 | 342 | 19.3 | 25.7 | 0.00 | 0.00 | 0.00 | 69 | 1014.0 |
| 20260503180533 | 17 | 334 | 12.9 | 22.5 | 0.00 | 0.00 | 0.00 | 68 | 1014.0 |
| 20260503180011 | 17 | 319 | 14.5 | 25.7 | 0.00 | 0.00 | 0.00 | 68 | 1014.0 |
| 20260503175615 | 17 | 322 | 16.1 | 25.7 | 0.00 | 0.00 | 0.00 | 67 | 1014.0 |
| 20260503175035 | 17 | 351 | 14.5 | 25.7 | 0.00 | 0.00 | 0.00 | 68 | 1013.9 |
| 20260503174513 | 17 | 299 | 17.7 | 27.4 | 0.00 | 0.00 | 0.00 | 67 | 1013.9 |
| 20260503174011 | 17 | 334 | 16.1 | 27.4 | 0.00 | 0.00 | 0.00 | 66 | 1014.0 |
| 20260503173536 | 17 | 311 | 16.1 | 27.4 | 0.00 | 0.00 | 0.00 | 66 | 1013.9 |
| 20260503173014 | 17 | 290 | 16.1 | 27.4 | 0.00 | 0.00 | 0.00 | 65 | 1014.0 |
| 20260503172525 | 17 | 290 | 12.9 | 27.4 | 0.00 | 0.00 | 0.00 | 65 | 1014.0 |
| 20260503172019 | 17 | 318 | 17.7 | 27.4 | 0.00 | 0.00 | 0.00 | 66 | 1014.0 |
| 20260503171536 | 17 | 320 | 14.5 | 27.4 | 0.00 | 0.00 | 0.00 | 66 | 1014.0 |
| 20260503171022 | 17 | 282 | 16.1 | 24.1 | 0.00 | 0.00 | 0.00 | 66 | 1014.0 |
| 20260503170519 | 17 | 325 | 17.7 | 24.1 | 0.00 | 0.00 | 0.00 | 65 | 1014.0 |
| 20260503150524 | 17 | 299 | 16.1 | 27.4 | 0.00 | 0.00 | 0.00 | 70 | 1014.2 |
| 20260503131023 | 18 | 220 | 9.7 | 17.7 | 0.00 | 0.00 | 0.00 | 70 | 1014.5 |
| 20260503130528 | 18 | 281 | 3.2 | 19.3 | 0.00 | 0.00 | 0.00 | 70 | 1014.5 |
| 20260503110512 | 18 | 255 | 16.1 | 20.9 | 0.00 | 0.00 | 0.00 | 72 | 1015.2 |
| 20260503081520 | 16 | 275 | 3.2 | 11.3 | 0.00 | 0.20 | 0.00 | 79 | 1015.2 |
| 20260503081020 | 15 | 282 | 6.4 | 11.3 | 0.00 | 0.20 | 0.00 | 80 | 1015.2 |
| 20260503080524 | 15 | 273 | 3.2 | 9.7 | 0.00 | 0.20 | 0.00 | 80 | 1015.2 |
| 20260503072519 | 15 | 273 | 6.4 | 11.3 | 0.00 | 0.20 | 0.00 | 83 | 1015.1 |
| 20260503072023 | 15 | 255 | 6.4 | 11.3 | 0.00 | 0.20 | 0.00 | 83 | 1015.0 |
| 20260503071524 | 15 | 190 | 3.2 | 8.0 | 0.00 | 0.20 | 0.00 | 83 | 1015.0 |
| 20260503071047 | 15 | 285 | 4.8 | 12.9 | 0.00 | 0.20 | 0.00 | 84 | 1015.0 |
| 20260503070531 | 14 | 264 | 8.0 | 12.9 | 0.00 | 0.20 | 0.00 | 84 | 1015.0 |
| 20260503054555 | 13 | 250 | 3.2 | 8.0 | 0.00 | 0.20 | 0.00 | 85 | 1014.7 |
| 20260503054011 | 13 | 246 | 6.4 | 8.0 | 0.00 | 0.20 | 0.00 | 85 | 1014.7 |
| 20260503053529 | 13 | 259 | 4.8 | 6.4 | 0.00 | 0.20 | 0.00 | 85 | 1014.6 |
| 20260503052514 | 13 | 259 | 4.8 | 6.4 | 0.00 | 0.20 | 0.00 | 85 | 1014.5 |
| 20260503052020 | 13 | 261 | 3.2 | 6.4 | 0.00 | 0.20 | 0.00 | 85 | 1014.5 |
| 20260503051552 | 13 | 262 | 4.8 | 6.4 | 0.00 | 0.20 | 0.00 | 85 | 1014.5 |
| 20260503051030 | 13 | 267 | 4.8 | 8.0 | 0.00 | 0.20 | 0.00 | 85 | 1014.5 |
| 20260503050535 | 13 | 270 | 3.2 | 4.8 | 0.00 | 0.20 | 0.00 | 85 | 1014.5 |
| 20260503050014 | 13 | 270 | 3.2 | 4.8 | 0.00 | 0.20 | 0.00 | 85 | 1014.5 |
| 20260503045523 | 13 | 270 | 3.2 | 3.2 | 0.00 | 0.20 | 0.00 | 85 | 1014.5 |
| 20260503045028 | 13 | 270 | 1.6 | 4.8 | 0.00 | 0.20 | 0.00 | 85 | 1014.6 |
| 20260503044555 | 13 | 270 | 3.2 | 4.8 | 0.00 | 0.20 | 0.00 | 84 | 1014.5 |
| 20260503044030 | 13 | 270 | 3.2 | 4.8 | 0.00 | 0.20 | 0.00 | 84 | 1014.6 |
| 20260503043530 | 13 | 270 | 3.2 | 6.4 | 0.00 | 0.20 | 0.00 | 85 | 1014.6 |
| 20260503043036 | 13 | 270 | 4.8 | 4.8 | 0.00 | 0.20 | 0.00 | 85 | 1014.6 |
| 20260503042519 | 13 | 271 | 3.2 | 6.4 | 0.00 | 0.20 | 0.00 | 85 | 1014.5 |
| 20260503042104 | 13 | 271 | 4.8 | 0.0 | 0.00 | 0.00 | 0.00 | 85 | 1014.4 |
| 20260503041522 | 13 | 272 | 4.8 | 8.0 | 0.00 | 0.20 | 0.00 | 85 | 1014.5 |
| 20260503041109 | 13 | 272 | 4.8 | 8.0 | 0.00 | 0.20 | 0.00 | 85 | 1014.6 |
| 20260503040526 | 13 | 281 | 6.4 | 8.0 | 0.00 | 0.20 | 0.00 | 85 | 1014.6 |
| 20260503040032 | 13 | 279 | 4.8 | 9.7 | 0.00 | 0.20 | 0.00 | 85 | 1014.5 |
| 20260503035528 | 13 | 278 | 4.8 | 9.7 | 0.00 | 0.20 | 0.00 | 85 | 1014.6 |
| 20260503035025 | 13 | 283 | 4.8 | 9.7 | 0.00 | 0.20 | 0.00 | 85 | 1014.6 |
| 20260503034032 | 13 | 278 | 6.4 | 8.0 | 0.00 | 0.20 | 0.00 | 85 | 1014.5 |
| 20260503033519 | 13 | 278 | 4.8 | 8.0 | 0.00 | 0.20 | 0.00 | 85 | 1014.6 |
| 20260503033015 | 13 | 278 | 4.8 | 4.8 | 0.00 | 0.20 | 0.00 | 84 | 1014.6 |
| 20260503032528 | 13 | 277 | 3.2 | 8.0 | 0.00 | 0.20 | 0.00 | 84 | 1014.6 |
| 20260503032017 | 13 | 276 | 3.2 | 8.0 | 0.00 | 0.20 | 0.00 | 84 | 1014.6 |
| 20260503031515 | 13 | 274 | 3.2 | 8.0 | 0.00 | 0.20 | 0.00 | 84 | 1014.7 |
| 20260503031013 | 13 | 268 | 3.2 | 6.4 | 0.00 | 0.20 | 0.00 | 84 | 1014.7 |
| 20260503030519 | 13 | 276 | 3.2 | 0.0 | 0.00 | 0.00 | 0.00 | 84 | 1014.6 |
| 20260503030010 | 13 | 274 | 3.2 | 8.0 | 0.00 | 0.20 | 0.00 | 84 | 1014.7 |
| 20260503025523 | 13 | 274 | 4.8 | 8.0 | 0.00 | 0.20 | 0.00 | 84 | 1014.7 |
| 20260503025019 | 13 | 276 | 6.4 | 9.7 | 0.00 | 0.20 | 0.00 | 84 | 1014.6 |
| 20260503024525 | 13 | 266 | 4.8 | 11.3 | 0.00 | 0.20 | 0.00 | 84 | 1014.7 |
| 20260503024022 | 14 | 280 | 6.4 | 11.3 | 0.00 | 0.20 | 0.00 | 84 | 1014.6 |
| 20260503023527 | 14 | 281 | 6.4 | 9.7 | 0.00 | 0.20 | 0.00 | 84 | 1014.7 |
| 20260503023016 | 14 | 272 | 4.8 | 9.7 | 0.00 | 0.20 | 0.00 | 84 | 1014.7 |
| 20260503022512 | 14 | 274 | 4.8 | 8.0 | 0.00 | 0.20 | 0.00 | 84 | 1014.7 |
| 20260503022030 | 14 | 275 | 4.8 | 8.0 | 0.00 | 0.20 | 0.00 | 84 | 1014.8 |
| 20260503021535 | 14 | 274 | 4.8 | 8.0 | 0.00 | 0.20 | 0.00 | 84 | 1014.9 |
| 20260503021012 | 14 | 291 | 3.2 | 9.7 | 0.00 | 0.20 | 0.00 | 84 | 1014.8 |
| 20260503020511 | 14 | 294 | 3.2 | 9.7 | 0.00 | 0.20 | 0.00 | 84 | 1014.9 |
| 20260503020016 | 14 | 287 | 3.2 | 8.0 | 0.00 | 0.20 | 0.00 | 84 | 1014.9 |
| 20260503015532 | 14 | 289 | 1.6 | 8.0 | 0.00 | 0.20 | 0.00 | 84 | 1014.9 |
| 20260503014512 | 14 | 278 | 3.2 | 11.3 | 0.00 | 0.20 | 0.00 | 84 | 1015.0 |
| 20260503014016 | 14 | 268 | 4.8 | 8.0 | 0.00 | 0.20 | 0.00 | 84 | 1015.0 |
| 20260503013535 | 15 | 261 | 4.8 | 11.3 | 0.00 | 0.20 | 0.00 | 84 | 1015.1 |
| 20260503013020 | 15 | 257 | 1.6 | 12.9 | 0.00 | 0.20 | 0.00 | 84 | 1015.1 |
| 20260503012518 | 15 | 264 | 6.4 | 12.9 | 0.00 | 0.20 | 0.00 | 84 | 1015.2 |
| 20260503012023 | 15 | 260 | 4.8 | 8.0 | 0.00 | 0.20 | 0.00 | 84 | 1015.3 |
| 20260503011521 | 15 | 269 | 3.2 | 4.8 | 0.00 | 0.20 | 0.00 | 84 | 1015.3 |
| 20260503011032 | 15 | 273 | 0.0 | 4.8 | 0.00 | 0.20 | 0.00 | 84 | 1015.3 |
| 20260503010529 | 15 | 273 | 3.2 | 6.4 | 0.00 | 0.20 | 0.00 | 84 | 1015.3 |
| 20260503010035 | 15 | 273 | 3.2 | 9.7 | 0.00 | 0.20 | 0.00 | 84 | 1015.3 |
| 20260503005523 | 15 | 270 | 4.8 | 9.7 | 0.00 | 0.20 | 0.00 | 84 | 1015.4 |
| 20260503005048 | 15 | 265 | 1.6 | 4.8 | 0.00 | 0.20 | 0.00 | 84 | 1015.4 |
| 20260503004525 | 15 | 264 | 1.6 | 8.0 | 0.00 | 0.20 | 0.00 | 84 | 1015.5 |
| 20260503004033 | 15 | 264 | 6.4 | 11.3 | 0.00 | 0.20 | 0.00 | 84 | 1015.6 |
| 20260503003530 | 15 | 264 | 6.4 | 12.9 | 0.00 | 0.20 | 0.00 | 84 | 1015.7 |
| 20260503003055 | 15 | 255 | 8.0 | 12.9 | 0.00 | 0.20 | 0.00 | 83 | 1015.7 |
| 20260503002522 | 15 | 257 | 6.4 | 11.3 | 0.00 | 0.20 | 0.00 | 83 | 1015.6 |
| 20260503002020 | 15 | 228 | 3.2 | 6.4 | 0.00 | 0.20 | 0.00 | 83 | 1015.7 |
| 20260503001525 | 15 | 246 | 1.6 | 8.0 | 0.00 | 0.20 | 0.00 | 83 | 1015.8 |
| 20260503001050 | 15 | 245 | 1.6 | 12.9 | 0.00 | 0.20 | 0.00 | 83 | 1015.8 |
| 20260503000527 | 15 | 251 | 3.2 | 12.9 | 0.00 | 0.20 | 0.00 | 83 | 1015.8 |
| 20260503000012 | 15 | 269 | 6.4 | 11.3 | 0.00 | 0.20 | 0.00 | 83 | 1015.8 |
| 20260502235616 | 15 | 251 | 6.4 | 11.3 | 0.00 | 0.20 | 0.00 | 83 | 1015.9 |
| 20260502235016 | 15 | 231 | 4.8 | 8.0 | 0.00 | 0.20 | 0.00 | 83 | 1015.9 |
| 20260502234515 | 15 | 278 | 3.2 | 8.0 | 0.00 | 0.20 | 0.00 | 83 | 1015.9 |
| 20260502234012 | 15 | 276 | 4.8 | 8.0 | 0.00 | 0.20 | 0.00 | 83 | 1015.9 |
| 20260502233515 | 15 | 270 | 6.4 | 8.0 | 0.00 | 0.20 | 0.00 | 83 | 1016.0 |
| 20260502233020 | 15 | 261 | 6.4 | 9.7 | 0.00 | 0.20 | 0.00 | 83 | 1016.1 |
| 20260502232510 | 15 | 287 | 4.8 | 9.7 | 0.00 | 0.20 | 0.00 | 83 | 1016.1 |
| 20260502232027 | 15 | 282 | 3.2 | 12.9 | 0.00 | 0.20 | 0.00 | 83 | 1016.1 |
| 20260502231533 | 15 | 270 | 8.0 | 12.9 | 0.00 | 0.20 | 0.00 | 83 | 1016.1 |
| 20260502231011 | 15 | 272 | 8.0 | 12.9 | 0.00 | 0.20 | 0.00 | 83 | 1016.1 |
| 20260502230530 | 15 | 249 | 4.8 | 11.3 | 0.00 | 0.20 | 0.00 | 83 | 1016.1 |
| 20260502230035 | 15 | 270 | 4.8 | 14.5 | 0.00 | 0.20 | 0.00 | 83 | 1016.2 |
| 20260502225524 | 15 | 270 | 6.4 | 14.5 | 0.00 | 0.20 | 0.00 | 83 | 1016.2 |
| 20260502225029 | 15 | 269 | 6.4 | 14.5 | 0.00 | 0.20 | 0.00 | 83 | 1016.1 |
| 20260502224528 | 15 | 276 | 9.7 | 14.5 | 0.00 | 0.20 | 0.00 | 83 | 1016.2 |
| 20260502224026 | 15 | 278 | 11.3 | 12.9 | 0.00 | 0.20 | 0.05 | 83 | 1016.2 |
| 20260502223531 | 15 | 294 | 8.0 | 12.9 | 0.00 | 0.20 | 0.05 | 83 | 1016.1 |
| 20260502223016 | 16 | 270 | 8.0 | 12.9 | 0.00 | 0.20 | 0.05 | 83 | 1016.2 |
| 20260502222533 | 16 | 263 | 9.7 | 12.9 | 0.00 | 0.20 | 0.05 | 83 | 1016.1 |
| 20260502222029 | 16 | 279 | 9.7 | 12.9 | 0.00 | 0.20 | 0.05 | 83 | 1016.2 |
| 20260502221015 | 16 | 284 | 4.8 | 11.3 | 0.00 | 0.20 | 0.05 | 83 | 1016.3 |
| 20260502220514 | 16 | 284 | 6.4 | 11.3 | 0.00 | 0.20 | 0.05 | 82 | 1016.2 |
| 20260502220047 | 16 | 282 | 6.4 | 12.9 | 0.00 | 0.20 | 0.05 | 82 | 1016.3 |
| 20260502215518 | 16 | 270 | 8.0 | 16.1 | 0.00 | 0.20 | 0.05 | 82 | 1016.3 |
| 20260502215016 | 16 | 276 | 11.3 | 16.1 | 0.00 | 0.20 | 0.05 | 82 | 1016.3 |
| 20260502214521 | 16 | 276 | 11.3 | 14.5 | 0.00 | 0.20 | 0.05 | 82 | 1016.3 |
| 20260502214046 | 16 | 265 | 9.7 | 16.1 | 0.00 | 0.20 | 0.05 | 82 | 1016.3 |
| 20260502213510 | 16 | 265 | 12.9 | 16.1 | 0.00 | 0.20 | 0.05 | 82 | 1016.2 |
| 20260502213023 | 16 | 250 | 11.3 | 16.1 | 0.00 | 0.20 | 0.05 | 82 | 1016.3 |
| 20260502212054 | 16 | 282 | 6.4 | 12.9 | 0.00 | 0.20 | 0.05 | 82 | 1016.3 |
| 20260502211511 | 16 | 276 | 6.4 | 16.1 | 0.00 | 0.20 | 0.05 | 82 | 1016.2 |
| 20260502211036 | 16 | 267 | 11.3 | 16.1 | 0.00 | 0.20 | 0.05 | 82 | 1016.2 |
| 20260502210515 | 16 | 270 | 8.0 | 14.5 | 0.00 | 0.20 | 0.05 | 81 | 1016.2 |
| 20260502210037 | 16 | 261 | 8.0 | 17.7 | 0.00 | 0.20 | 0.05 | 81 | 1016.1 |
| 20260502205541 | 16 | 269 | 6.4 | 17.7 | 0.00 | 0.20 | 0.05 | 81 | 1016.1 |
| 20260502205016 | 16 | 269 | 11.3 | 17.7 | 0.00 | 0.20 | 0.05 | 81 | 1016.1 |
| 20260502204521 | 16 | 276 | 11.3 | 17.7 | 0.00 | 0.20 | 0.05 | 81 | 1016.0 |
| 20260502204018 | 16 | 263 | 9.7 | 17.7 | 0.00 | 0.20 | 0.05 | 81 | 1015.9 |
| 20260502203515 | 16 | 237 | 9.7 | 17.7 | 0.00 | 0.20 | 0.05 | 81 | 1015.9 |
| 20260502203030 | 16 | 273 | 11.3 | 17.7 | 0.00 | 0.20 | 0.05 | 81 | 1015.9 |
| 20260502202517 | 16 | 266 | 11.3 | 17.7 | 0.00 | 0.20 | 0.05 | 81 | 1015.7 |
| 20260502202030 | 16 | 273 | 11.3 | 16.1 | 0.00 | 0.20 | 0.05 | 81 | 1015.6 |
| 20260502201548 | 16 | 273 | 12.9 | 16.1 | 0.00 | 0.20 | 0.05 | 81 | 1015.6 |
| 20260502201032 | 16 | 284 | 6.4 | 17.7 | 0.00 | 0.20 | 0.05 | 81 | 1015.6 |
| 20260502200024 | 16 | 253 | 4.8 | 20.9 | 0.00 | 0.20 | 0.05 | 81 | 1015.5 |
| 20260502195533 | 17 | 291 | 6.4 | 20.9 | 0.00 | 0.20 | 0.05 | 81 | 1015.4 |
| 20260502195037 | 17 | 242 | 6.4 | 17.7 | 0.00 | 0.20 | 0.05 | 81 | 1015.5 |
| 20260502194020 | 17 | 245 | 3.2 | 19.3 | 0.00 | 0.20 | 0.05 | 81 | 1015.3 |
| 20260502193603 | 17 | 232 | 14.5 | 17.7 | 0.00 | 0.20 | 0.05 | 80 | 1015.4 |
| 20260502193024 | 17 | 249 | 14.5 | 19.3 | 0.00 | 0.20 | 0.05 | 80 | 1015.4 |
| 20260502192537 | 17 | 261 | 8.0 | 19.3 | 0.00 | 0.20 | 0.05 | 80 | 1015.4 |
| 20260502192015 | 17 | 266 | 8.0 | 17.7 | 0.00 | 0.20 | 0.05 | 80 | 1015.4 |
| 20260502191520 | 17 | 276 | 8.0 | 17.7 | 0.00 | 0.20 | 0.05 | 79 | 1015.3 |
| 20260502190528 | 17 | 249 | 14.5 | 24.1 | 0.00 | 0.20 | 0.05 | 78 | 1015.3 |
| 20260502190026 | 17 | 190 | 8.0 | 24.1 | 0.00 | 0.20 | 0.05 | 77 | 1015.3 |
| 20260502185038 | 17 | 207 | 3.2 | 20.9 | 0.00 | 0.20 | 0.05 | 76 | 1015.2 |
| 20260502184513 | 17 | 190 | 11.3 | 19.3 | 0.00 | 0.20 | 0.05 | 74 | 1015.2 |